| time (UTC) | temp C | wind direction | speed KPH | gust KPH | rain 1hr cm | rain 24hr cm | rain mn cm | humidity % | barometer mb |
| 20260901164003 | 21 | 272 | 4.8 | 16.1 | 0.00 | 0.00 | 0.00 | 58 | 1018.2 |
| 20260901163004 | 21 | 284 | 6.4 | 20.9 | 0.00 | 0.00 | 0.00 | 59 | 1018.4 |
| 20260901162004 | 21 | 298 | 4.8 | 14.5 | 0.00 | 0.00 | 0.00 | 57 | 1018.3 |
| 20260901161003 | 21 | 267 | 4.8 | 14.5 | 0.00 | 0.00 | 0.00 | 58 | 1018.3 |
| 20260901155003 | 21 | 269 | 8.0 | 19.3 | 0.00 | 0.00 | 0.00 | 58 | 1018.5 |
| 20260901154003 | 22 | 251 | 6.4 | 24.1 | 0.00 | 0.00 | 0.00 | 57 | 1018.6 |
| 20260901153003 | 22 | 258 | 8.0 | 19.3 | 0.00 | 0.00 | 0.00 | 57 | 1018.6 |
| 20260901151004 | 22 | 306 | 6.4 | 16.1 | 0.00 | 0.10 | 0.00 | 57 | 1018.5 |
| 20260901145003 | 22 | 270 | 6.4 | 20.9 | 0.00 | 0.10 | 0.00 | 56 | 1018.6 |
| 20260901144003 | 22 | 259 | 8.0 | 20.9 | 0.00 | 0.10 | 0.00 | 55 | 1018.6 |
| 20260901143003 | 23 | 265 | 6.4 | 19.3 | 0.00 | 0.10 | 0.00 | 53 | 1018.7 |
| 20260901141003 | 22 | 253 | 6.4 | 24.1 | 0.00 | 0.20 | 0.00 | 55 | 1018.8 |
| 20260901140004 | 21 | 282 | 4.8 | 12.9 | 0.00 | 0.20 | 0.00 | 59 | 1018.7 |
| 20260901135003 | 21 | 296 | 4.8 | 12.9 | 0.00 | 0.20 | 0.00 | 58 | 1018.8 |
| 20260901134004 | 21 | 272 | 6.4 | 14.5 | 0.00 | 0.20 | 0.00 | 59 | 1018.9 |
| 20260901133003 | 21 | 265 | 4.8 | 17.7 | 0.00 | 0.20 | 0.00 | 59 | 1019.0 |
| 20260901132003 | 21 | 265 | 6.4 | 16.1 | 0.00 | 0.20 | 0.00 | 58 | 1018.9 |
| 20260901131003 | 21 | 254 | 6.4 | 17.7 | 0.00 | 0.20 | 0.00 | 58 | 1019.0 |
| 20260901130004 | 22 | 250 | 8.0 | 22.5 | 0.00 | 0.20 | 0.00 | 58 | 1019.1 |
| 20260901125003 | 21 | 255 | 6.4 | 24.1 | 0.00 | 0.20 | 0.00 | 58 | 1019.0 |
| 20260901123003 | 22 | 249 | 6.4 | 20.9 | 0.00 | 0.20 | 0.00 | 57 | 1019.3 |
| 20260901122003 | 22 | 276 | 4.8 | 12.9 | 0.00 | 0.20 | 0.00 | 59 | 1019.4 |
| 20260901121005 | 21 | 295 | 6.4 | 12.9 | 0.00 | 0.20 | 0.00 | 59 | 1019.4 |
| 20260901120004 | 21 | 264 | 4.8 | 16.1 | 0.00 | 0.20 | 0.00 | 57 | 1019.5 |
| 20260901115003 | 21 | 227 | 6.4 | 17.7 | 0.00 | 0.20 | 0.00 | 59 | 1019.4 |
| 20260901114003 | 21 | 251 | 4.8 | 17.7 | 0.00 | 0.20 | 0.00 | 59 | 1019.3 |
| 20260901113004 | 20 | 287 | 4.8 | 11.3 | 0.00 | 0.20 | 0.00 | 61 | 1019.5 |
| 20260901112004 | 20 | 279 | 8.0 | 19.3 | 0.00 | 0.20 | 0.00 | 61 | 1019.6 |
| 20260901111004 | 20 | 259 | 4.8 | 19.3 | 0.00 | 0.20 | 0.00 | 60 | 1019.7 |
| 20260901110004 | 20 | 289 | 6.4 | 17.7 | 0.00 | 0.20 | 0.00 | 61 | 1019.6 |
| 20260901102003 | 20 | 282 | 6.4 | 19.3 | 0.00 | 0.20 | 0.00 | 64 | 1019.9 |
| 20260901101003 | 20 | 285 | 4.8 | 14.5 | 0.00 | 0.20 | 0.00 | 64 | 1019.9 |
| 20260901094004 | 19 | 255 | 4.8 | 14.5 | 0.00 | 0.20 | 0.00 | 67 | 1020.1 |
| 20260901093003 | 18 | 240 | 4.8 | 12.9 | 0.00 | 0.20 | 0.00 | 68 | 1020.1 |
| 20260901092003 | 18 | 250 | 3.2 | 12.9 | 0.00 | 0.20 | 0.00 | 69 | 1020.1 |
| 20260901091003 | 18 | 255 | 3.2 | 9.7 | 0.00 | 0.20 | 0.00 | 71 | 1020.2 |
| 20260901090005 | 18 | 254 | 4.8 | 16.1 | 0.00 | 0.23 | 0.00 | 73 | 1020.2 |
| 20260901085004 | 17 | 259 | 4.8 | 11.3 | 0.00 | 0.23 | 0.00 | 75 | 1020.1 |
| 20260901084003 | 17 | 269 | 4.8 | 14.5 | 0.00 | 0.23 | 0.00 | 77 | 1020.1 |